Regional Weather Roundup
Issued by NWS

Home | Current Version | Previous Version | Text Only | Print | Product List | Glossary On
Versions: 1 2 3 4 5 6 7 8 9 10 11 12 13 14 15 16 17 18 19 20 21 22 23 24 25 26 27
000
ASUS45 KPSR 300610
RWRAZ

ARIZONA HOURLY REGIONAL WEATHER ROUNDUP
NATIONAL WEATHER SERVICE PHOENIX AZ
1100 PM MST SUN MAY 29 2016

NOTE: FAIR INDICATES FEW OR NO CLOUDS BELOW 12,000 FEET WITH NO
SIGNIFICANT WEATHER AND/OR OBSTRUCTIONS TO VISIBILITY.

AZZ001>003-036-300700-
NORTHWEST ARIZONA

CITY           SKY/WX    TMP DP  RH WIND       PRES   REMARKS
KINGMAN        CLEAR     65  21  18 S6        29.99S
6HR MIN TEMP:  65; 6HR MAX TEMP:  86;

$$

AZZ004>008-015-016-018-300700-
NORTH CENTRAL ARIZONA

CITY           SKY/WX    TMP DP  RH WIND       PRES   REMARKS
GRAND CANYON   PTCLDY    46  17  31 NE3       30.18S
6HR MIN TEMP:  44; 6HR MAX TEMP:  76;

WILLIAMS       CLEAR     46  14  27 SE7       30.25F
PRESCOTT       CLEAR     57  23  26 S8        30.09S
6HR MIN TEMP:  57; 6HR MAX TEMP:  79;

FLAGSTAFF      CLEAR     41  17  38 CALM      30.20F
6HR MIN TEMP:  41; 6HR MAX TEMP:  70;

PAYSON         CLEAR     61  16  17 CALM      30.10F
PAGE           MOCLDY    75  22  13 SW5       29.96R
6HR MIN TEMP:  74; 6HR MAX TEMP:  87;

$$

AZZ009>014-017-300700-
NORTHEAST ARIZONA

CITY           SKY/WX    TMP DP  RH WIND       PRES   REMARKS
WINSLOW        CLEAR     61  17  18 SW10      30.06S
6HR MIN TEMP:  61; 6HR MAX TEMP:  85;

SAINT JOHNS    CLEAR     60  16  18 E3        30.10S
6HR MIN TEMP:  58; 6HR MAX TEMP:  82;

WINDOW ROCK    CLEAR     59  10  14 CALM      30.17R
6HR MIN TEMP:  55; 6HR MAX TEMP:  78;

SHOW LOW       CLEAR     50  14  23 CALM      30.17F
$$

AZZ023-300700-
GREATER PHOENIX AREA

CITY           SKY/WX    TMP DP  RH WIND       PRES   REMARKS
PHOENIX        CLEAR     85  20   9 W12       29.84R
6HR MIN TEMP:  84; 6HR MAX TEMP:  97;

BUCKEYE        CLEAR     77  16  10 CALM      29.87S
LUKE AFB       CLEAR     82  21  10 S10       29.84R
6HR MIN TEMP:  82; 6HR MAX TEMP:  96;

DEER VALLEY    CLEAR     78  22  12 N5        29.87R
6HR MIN TEMP:  78; 6HR MAX TEMP:  94;

SCOTTSDALE     CLEAR     82  20  10 CALM      29.89R
6HR MIN TEMP:  82; 6HR MAX TEMP:  95;

MESA-GATEWAY   CLEAR     79  25  13 CALM      29.88R
$$

AZZ027-028-300700-
SOUTHWEST MARICOPA COUNTY AND PINAL COUNTY

CITY           SKY/WX    TMP DP  RH WIND       PRES   REMARKS
CASA GRANDE    CLEAR     77  25  14 SW5       29.90R
6HR MIN TEMP:  77; 6HR MAX TEMP:  97;

GILA BEND      FAIR      77  11   8 SW10      29.85S
6HR MIN TEMP:  77; 6HR MAX TEMP:  96;

$$

AZZ503-504-507>509-300700-
SOUTHEAST ARIZONA

CITY           SKY/WX    TMP DP  RH WIND       PRES   REMARKS
TUCSON         CLEAR     78  32  18 N5        29.99R
6HR MIN TEMP:  78; 6HR MAX TEMP:  94;

DAVIS-MONTHAN  CLEAR     77  32  19 NW3       29.97R
6HR MIN TEMP:  77; 6HR MAX TEMP:  93;

NOGALES        CLEAR     70  32  24 CALM      30.05S
6HR MIN TEMP:  70; 6HR MAX TEMP:  87;

SIERRA VISTA   CLEAR     70  37  30 SW8       30.10S
6HR MIN TEMP:  68; 6HR MAX TEMP:  84;

DOUGLAS        PTCLDY    70  35  27 W6        30.05F
6HR MIN TEMP:  70; 6HR MAX TEMP:  89;

SAFFORD        CLEAR     75  12   9 N8        29.95R
6HR MIN TEMP:  75; 6HR MAX TEMP:  94;

$$

AZZ020-021-025-026-031-300700-
SOUTHWEST ARIZONA

CITY           SKY/WX    TMP DP  RH WIND       PRES   REMARKS
YUMA           CLEAR     74  41  30 S7        29.83S
6HR MIN TEMP:  74; 6HR MAX TEMP:  92;

$$

CAZ031-033-041-043-047-048-061-300700-
SOUTHERN CALIFORNIA

CITY           SKY/WX    TMP DP  RH WIND       PRES   REMARKS
DOWNTOWN L.A.  CLEAR     61  52  72 CALM      30.01S
6HR MIN TEMP:  61; 6HR MAX TEMP:  68;

L.A. AIRPORT   PTCLDY    60  55  83 W10       30.02R
6HR MIN TEMP:  60; 6HR MAX TEMP:  66;

SAN DIEGO      CLOUDY    65  55  70 NW7       30.03S
6HR MIN TEMP:  65; 6HR MAX TEMP:  67;

BURBANK        CLEAR     60  51  72 S6        30.00S
6HR MIN TEMP:  60; 6HR MAX TEMP:  71;

ONTARIO        CLEAR     60  51  72 W9        30.00S
6HR MIN TEMP:  60; 6HR MAX TEMP:  75;

RIVERSIDE      CLEAR     61  52  72 W5        30.00S
6HR MIN TEMP:  61; 6HR MAX TEMP:  76;

PALM SPRINGS   CLEAR     77  51  40 NW12      29.85R
6HR MIN TEMP:  77; 6HR MAX TEMP:  91;

EL CENTRO NAS  CLEAR     78  47  33 SW13      29.83S
6HR MIN TEMP:  78; 6HR MAX TEMP:  92;

IMPERIAL       CLEAR     80  47  31 W15       29.81S
6HR MIN TEMP:  79; 6HR MAX TEMP:  94;

BLYTHE         CLEAR     81  41  24 W6        29.82S
6HR MIN TEMP:  81; 6HR MAX TEMP:  93;

NEEDLES        CLEAR     82  26  13 W8        29.83S
6HR MIN TEMP:  80; 6HR MAX TEMP:  94;

$$

NVZ020-UTZ003-300700-
SOUTHERN NEVADA-UTAH

CITY           SKY/WX    TMP DP  RH WIND       PRES   REMARKS
LAS VEGAS      CLEAR     81  18   9 S7        29.85R
6HR MIN TEMP:  81; 6HR MAX TEMP:  91;

SALT LAKE CITY CLOUDY    64  47  53 N24G33    30.09R
6HR MIN TEMP:  64; 6HR MAX TEMP:  79; 6HR PCP: TRACE;

$$

NMZ009-TXZ055-300700-
NEW MEXICO-WEST TEXAS

CITY           SKY/WX    TMP DP  RH WIND       PRES   REMARKS
ALBUQUERQUE    MOCLDY    69  16  13 S8        30.07R
6HR MIN TEMP:  68; 6HR MAX TEMP:  85;

EL PASO        PTCLDY    79  34  19 S7        30.02S
6HR MIN TEMP:  77; 6HR MAX TEMP:  91;

$$


........................KEY........................
SKY/WX - SKY CONDITION/WEATHER
TMP    - TEMPERATURE IN FAHRENHEIT
DP     - DEW POINT IN FAHRENHEIT
RH     - RELATIVE HUMIDITY IN PERCENT
WIND   - DIRECTION AND SPEED IN MILES PER HOUR (MPH)
VRB    - VARIABLE WIND DIRECTION
PRES   - MEAN SEA LEVEL PRESSURE IN INCHES OF MERCURY
         F - FALLING PRESSURE   R - RISING PRESSURE
         S - STEADY PRESSURE
VSB    - VISIBILITY IN MILES
HX     - HEAT INDEX IN FAHRENHEIT
WCI    - WIND CHILL INDEX IN FAHRENHEIT
TC     - TEMPERATURE IN CELSIUS WHICH IS ALSO KNOWN AS
         TEMPERATURE IN CENTIGRADE
AFB    - AIR FORCE BASE
         LUKE AFB IS LUKE AIR FORCE BASE
         DAVIS-MONTHAN IS DAVIS-MONTHAN AIR FORCE BASE
NAS    - NAVAL AIR STATION
         EL CENTRO NAS IS EL CENTRO NAVAL AIR STATION
N/A    - NOT AVAILABLE





USA.gov is the U.S. government's official web portal to all federal, state and local government web resources and services.